Weslaco, TX

2:28 AM CDT on October 17, 2017 (GMT -0500)
Weslaco

Weather History for KT65 - October, 2013

Change the Weather History Date:

Thursday, October 31, 2013

  Actual Average (KMFE) Record (KMFE)
Temperature  
Mean Temperature 84 °F -  
Max Temperature 90 °F 81 °F 95 °F (2010)
Min Temperature 77 °F 62 °F 41 °F (1993)
Cooling Degree Days 18    
Growing Degree Days 34 (Base 50)    
Moisture  
Dew Point 72 °F    
Average Humidity 71    
Maximum Humidity 89    
Minimum Humidity 49    
Precipitation  
Precipitation 0.05 in - - ()
Sea Level Pressure  
Sea Level Pressure 29.83 in    
Wind  
Wind Speed 11 mph (SSW)    
Max Wind Speed 20 mph    
Max Gust Speed 26 mph    
Visibility 9 miles    
Events Rain , Thunderstorm    
Averages and records for this station are not official NWS values.
T = Trace of Precipitation, MM = Missing Value Source: NWS Daily Summary

Daily Weather History Graph

Daily Weather History Graph

Search for Another Location

Airport or City:

Trip Planner

Search our weather history database for the weather conditions in past years. The results will help you decide how hot, cold, wet, or windy it might be!

Date:

Astronomy

Oct. 31, 2013 Rise Set
Actual Time 7:40 AM CDT 6:50 PM CDT
Civil Twilight 7:16 AM CDT 7:14 PM CDT
Nautical Twilight 6:49 AM CDT 7:41 PM CDT
Astronomical Twilight 6:22 AM CDT 8:08 PM CDT
Moon 4:47 AM CDT (10/31) 4:55 PM CDT (10/31)
Length of Visible Light 11h 57m
Length of Day
11h 09m
Waning Crescent, 10% of the Moon is Illuminated
Oct 31
Waning Crescent
Nov 3
New
Nov 9
First Quarter
Nov 17
Full
Nov 25
Last Quarter

Hourly Weather History & Observations

Time (CDT) Temp. Heat Index Dew Point Humidity Pressure Visibility Wind Dir Wind Speed Gust Speed Precip Events Conditions
12:15 AM 80.1 °F 83.8 °F 71.8 °F 76% 29.83 in 10.0 mi SSE 16.1 mph 23.0 mph N/A   Clear
12:35 AM 79.9 °F - 72.0 °F 77% 29.83 in 10.0 mi South 18.4 mph 25.3 mph N/A   Clear
12:55 AM 79.7 °F - 72.7 °F 79% 29.83 in 10.0 mi SSE 19.6 mph 26.5 mph N/A   Clear
1:15 AM 79.7 °F - 72.9 °F 80% 29.82 in 10.0 mi SSE 18.4 mph 25.3 mph N/A   Clear
1:35 AM 79.7 °F - 73.0 °F 80% 29.82 in 10.0 mi South 19.6 mph 26.5 mph N/A   Clear
1:55 AM 79.5 °F - 73.0 °F 80% 29.82 in 10.0 mi SSE 15.0 mph 21.9 mph N/A   Mostly Cloudy
2:15 AM 79.7 °F - 73.0 °F 80% 29.82 in 10.0 mi South 13.8 mph 21.9 mph N/A   Mostly Cloudy
2:35 AM 79.7 °F - 73.4 °F 81% 29.81 in 10.0 mi South 16.1 mph 23.0 mph N/A   Mostly Cloudy
2:55 AM 79.7 °F - 72.9 °F 80% 29.81 in 10.0 mi South 16.1 mph 26.5 mph N/A   Scattered Clouds
3:15 AM 79.7 °F - 73.0 °F 80% 29.81 in 10.0 mi South 16.1 mph 24.2 mph N/A   Scattered Clouds
3:35 AM 79.7 °F - 73.0 °F 80% 29.81 in 10.0 mi South 15.0 mph - N/A   Scattered Clouds
3:55 AM 79.7 °F - 73.0 °F 80% 29.81 in 10.0 mi South 11.5 mph 18.4 mph N/A   Mostly Cloudy
4:15 AM 79.3 °F - 73.4 °F 82% 29.81 in 10.0 mi South 11.5 mph - N/A   Mostly Cloudy
4:35 AM 79.7 °F - 73.4 °F 81% 29.81 in 10.0 mi South 16.1 mph - N/A   Overcast
4:55 AM 79.7 °F - 73.0 °F 80% 29.81 in 10.0 mi South 13.8 mph 18.4 mph N/A   Mostly Cloudy
5:15 AM 79.5 °F - 73.2 °F 81% 29.82 in 10.0 mi South 12.7 mph 17.3 mph N/A   Scattered Clouds
5:35 AM 79.3 °F - 73.0 °F 81% 29.81 in 10.0 mi South 12.7 mph 20.7 mph N/A   Clear
5:55 AM 79.0 °F - 73.0 °F 82% 29.82 in 10.0 mi South 11.5 mph 16.1 mph N/A   Scattered Clouds
6:15 AM 79.0 °F - 73.0 °F 82% 29.82 in 10.0 mi South 8.1 mph - N/A   Scattered Clouds
6:35 AM 79.0 °F - 73.4 °F 83% 29.82 in 10.0 mi South 6.9 mph - N/A   Mostly Cloudy
6:55 AM 79.3 °F - 73.0 °F 81% 29.83 in 10.0 mi South 9.2 mph - N/A   Overcast
7:15 AM 79.7 °F - 73.4 °F 81% 29.83 in 10.0 mi South 6.9 mph - N/A   Overcast
7:35 AM 79.7 °F - 73.4 °F 81% 29.84 in 10.0 mi SSW 6.9 mph - N/A   Overcast
7:55 AM 79.0 °F - 73.6 °F 83% 29.84 in 7.0 mi South 11.5 mph - N/A Rain Rain
8:15 AM 78.6 °F - 73.8 °F 85% 29.84 in 7.0 mi South 12.7 mph 17.3 mph N/A Rain Rain
8:35 AM 78.1 °F - 74.3 °F 88% 29.85 in 5.0 mi South 9.2 mph - 0.03 in Rain Rain
8:55 AM 77.9 °F - 74.3 °F 89% 29.86 in 4.0 mi South 17.3 mph 24.2 mph 0.05 in Rain Rain
9:15 AM 78.4 °F - 73.9 °F 86% 29.86 in 7.0 mi SSW 8.1 mph - N/A   Overcast
9:35 AM 78.6 °F - 74.1 °F 86% 29.86 in 7.0 mi SSW 6.9 mph - N/A Thunderstorm Thunderstorm
9:55 AM 79.2 °F - 74.7 °F 86% 29.86 in 7.0 mi South 8.1 mph - N/A   Mostly Cloudy
10:15 AM 80.6 °F 85.9 °F 74.7 °F 82% 29.86 in 5.0 mi South 11.5 mph - N/A Thunderstorm Haze
10:35 AM 80.6 °F 85.9 °F 74.5 °F 82% 29.86 in 5.0 mi South 12.7 mph 16.1 mph N/A   Haze
10:55 AM 81.5 °F 87.2 °F 74.1 °F 78% 29.86 in 7.0 mi SSW 13.8 mph 19.6 mph N/A   Clear
11:15 AM 81.9 °F 87.5 °F 73.6 °F 76% 29.86 in 7.0 mi SSW 12.7 mph 20.7 mph N/A   Clear
11:35 AM 84.4 °F 91.7 °F 74.1 °F 71% 29.86 in 7.0 mi SSW 12.7 mph 20.7 mph N/A   Clear
11:55 AM 83.8 °F 90.4 °F 73.4 °F 71% 29.86 in 7.0 mi South 16.1 mph 23.0 mph N/A   Scattered Clouds
12:15 PM 84.2 °F 90.9 °F 73.6 °F 70% 29.86 in 7.0 mi South 12.7 mph 18.4 mph N/A   Mostly Cloudy
12:35 PM 84.9 °F 91.4 °F 73.0 °F 67% 29.86 in 7.0 mi SSW 8.1 mph - N/A   Mostly Cloudy
12:55 PM 85.3 °F 91.5 °F 72.5 °F 65% 29.85 in 7.0 mi SW 8.1 mph - N/A   Mostly Cloudy
1:15 PM 85.6 °F 91.5 °F 72.0 °F 63% 29.84 in 7.0 mi WSW 6.9 mph - N/A   Mostly Cloudy
1:35 PM 87.4 °F 94.0 °F 71.8 °F 60% 29.83 in 7.0 mi SSW 5.8 mph - N/A   Scattered Clouds
1:55 PM 87.3 °F 93.6 °F 71.8 °F 60% 29.82 in 10.0 mi West 3.5 mph - N/A   Mostly Cloudy
2:15 PM 86.7 °F 92.5 °F 71.4 °F 60% 29.81 in 7.0 mi WNW 8.1 mph - N/A   Overcast
2:35 PM 88.9 °F 95.1 °F 71.6 °F 56% 29.80 in 7.0 mi Calm Calm - N/A Thunderstorm Scattered Clouds
2:55 PM 89.2 °F 95.9 °F 71.6 °F 56% 29.80 in 7.0 mi WNW 5.8 mph - N/A   Scattered Clouds
3:15 PM 89.4 °F 95.3 °F 70.5 °F 54% 29.79 in 7.0 mi NW 4.6 mph - N/A   Clear
3:35 PM 90.0 °F 95.0 °F 69.8 °F 51% 29.79 in 10.0 mi West 5.8 mph - N/A   Scattered Clouds
3:55 PM 90.0 °F 95.0 °F 69.4 °F 51% 29.78 in 10.0 mi WNW 4.6 mph - N/A   Mostly Cloudy
4:15 PM 90.3 °F 94.7 °F 68.7 °F 49% 29.78 in 7.0 mi NW 5.8 mph - N/A   Scattered Clouds
4:35 PM 89.2 °F 93.2 °F 68.5 °F 50% 29.78 in 10.0 mi NNE 4.6 mph - N/A   Mostly Cloudy
4:55 PM 88.3 °F 93.2 °F 69.6 °F 54% 29.78 in 5.0 mi NNW 3.5 mph - N/A   Haze
5:15 PM 88.9 °F 93.0 °F 68.9 °F 51% 29.78 in 10.0 mi Calm Calm - N/A   Scattered Clouds
5:35 PM 89.2 °F 92.8 °F 67.8 °F 49% 29.78 in 10.0 mi Calm Calm - N/A   Clear
5:55 PM 88.3 °F 92.0 °F 68.2 °F 51% 29.78 in 7.0 mi Calm Calm - N/A   Clear
6:15 PM 87.8 °F 91.8 °F 68.5 °F 53% 29.79 in 7.0 mi Calm Calm - N/A   Clear
6:35 PM 86.9 °F 91.3 °F 69.3 °F 56% 29.79 in 10.0 mi Calm Calm - N/A   Clear
6:55 PM 86.2 °F 90.7 °F 69.6 °F 58% 29.80 in 10.0 mi Calm Calm - N/A   Clear
7:15 PM 84.4 °F 88.7 °F 70.2 °F 62% 29.80 in 10.0 mi Calm Calm - N/A   Clear
7:35 PM 82.9 °F 87.0 °F 70.2 °F 65% 29.80 in 10.0 mi Calm Calm - N/A   Clear
7:55 PM 83.1 °F 87.3 °F 70.2 °F 65% 29.81 in 10.0 mi Calm Calm - N/A   Clear
8:15 PM 82.6 °F 86.8 °F 70.7 °F 67% 29.81 in 10.0 mi North 3.5 mph - N/A   Clear
8:35 PM 82.8 °F 86.9 °F 70.3 °F 66% 29.82 in 10.0 mi North 3.5 mph - N/A   Clear
8:55 PM 81.9 °F 86.0 °F 70.9 °F 69% 29.83 in 10.0 mi North 3.5 mph - N/A   Clear
9:15 PM 81.5 °F 85.1 °F 70.0 °F 68% 29.84 in 10.0 mi North 3.5 mph - N/A   Clear
9:35 PM 81.5 °F 84.2 °F 67.6 °F 63% 29.84 in 10.0 mi North 5.8 mph - N/A   Clear
9:55 PM 81.0 °F 83.8 °F 68.2 °F 65% 29.85 in 10.0 mi North 4.6 mph - N/A   Clear
10:15 PM 79.9 °F - 69.3 °F 70% 29.85 in 10.0 mi North 3.5 mph - N/A   Clear
10:35 PM 79.5 °F - 69.8 °F 72% 29.85 in 10.0 mi North 3.5 mph - N/A   Clear
10:55 PM 79.0 °F - 70.3 °F 75% 29.86 in 10.0 mi NNE 4.6 mph - N/A   Clear
11:15 PM 77.9 °F - 70.7 °F 78% 29.86 in 10.0 mi NNE 3.5 mph - N/A   Clear
11:35 PM 77.5 °F - 70.7 °F 79% 29.87 in 10.0 mi Calm Calm - N/A   Clear
11:55 PM 77.4 °F - 70.7 °F 80% 29.86 in 7.0 mi Calm Calm - N/A   Clear